CAPE
139 154 172 227 551 703 592 597 606 614 656 411 223 126 176 168 220 307 424 459 734 809 898 847 815 734 639 425 329 807 772 651 517
0 5 37 119 418 522 553 488 554 643 494 307 143 117 14 0 84 180 392 589 712 580 752 867 795 735 730 652 309 311 404 391 475
0 0 32 192 347 496 503 456 484 424 323 174 197 105 18 17 59 151 336 680 678 583 572 837 814 789 729 711 635 402 370 459 426
13 14 52 124 245 452 413 377 222 124 134 162 123 68 9 60 142 232 367 624 431 595 541 651 674 714 763 746 682 574 465 400 405
11 7 21 317 331 291 257 269 179 163 130 63 111 106 21 0 74 169 372 808 646 578 579 630 711 754 716 730 678 622 559 501 366
2 1 3 21 193 278 285 253 61 11 2 10 66 29 0 0 19 131 561 618 466 541 503 658 656 510 602 622 566 436 424 252 244
0 1 4 4 9 19 163 84 20 12 21 26 24 13 0 12 6 56 435 444 338 490 511 734 633 589 485 426 295 130 90 11 2
0 0 0 0 6 11 16 16 11 14 14 23 24 18 17 4 11 8 280 390 407 604 619 663 542 546 420 247 113 42 1 1 0
0 0 0 0 3 6 1 9 7 10 12 22 12 6 12 10 8 20 19 254 295 305 496 558 446 355 126 51 36 1 0 0 0
0 0 0 0 0 0 0 0 5 7 4 6 6 16 12 15 15 5 21 42 104 167 207 406 215 224 53 3 1 0 0 0 0
0 0 0 0 0 0 0 0 1 2 9 6 9 8 8 11 5 10 12 16 37 55 83 94 123 140 94 44 24 16 8 1 6
0 0 0 0 0 0 0 0 3 2 3 6 8 2 4 4 3 3 12 9 9 7 26 96 87 85 122 74 44 55 63 40 13
0 0 0 0 0 0 0 0 2 3 6 1 5 4 3 0 1 1 2 0 1 3 2 7 25 66 67 70 64 59 61 53 75
0 0 0 0 0 0 0 0 0 2 2 2 0 0 0 0 0 0 0 0 0 1 1 0 3 17 71 70 71 61 30 20 39
0 0 0 0 0 0 0 0 0 0 0 0 0 0 0 0 0 0 0 0 0 0 0 0 0 0 13 60 64 41 25 35 48
0 0 0 0 0 0 0 0 0 0 0 0 0 0 0 0 0 0 0 0 0 0 0 0 0 1 5 7 53 62 62 50 8
0 0 0 0 0 0 0 0 0 0 0 0 0 0 0 0 0 0 0 0 0 0 0 0 0 0 11 4 0 14 28 44 19
0 0 0 0 0 0 0 0 0 0 0 0 0 0 0 0 0 0 0 0 0 0 0 0 0 0 0 0 0 0 0 1 7
0 0 0 0 0 0 0 0 0 0 0 0 0 0 0 0 0 0 0 0 0 0 0 0 0 0 0 0 0 0 4 12 12
0 0 0 0 0 0 0 0 0 0 0 0 0 0 0 0 0 0 0 0 0 0 0 0 0 0 0 0 0 0 0 0 0
CIN
-111 -105 -84 -52 -0 -0 -0 -0 -0 -0 -0 -7 -33 -66 -67 -48 -43 -13 -6 -0 -0 -0 -0 -0 -0 -4 -6 -13 -20 -0 -1 -1 -1
-0 -159 -158 -68 -15 -3 -0 -0 -0 -0 -0 -9 -52 -64 -18 -0 -87 -68 -6 -1 -0 -0 -0 -0 -0 -0 -3 -3 -38 -29 -3 -3 -0
-0 -0 -156 -57 -11 -14 -9 -6 -8 -6 -10 -48 -30 -65 -46 -48 -91 -52 -11 -2 -0 -0 -0 -0 -0 -0 -0 -2 -3 -17 -17 -3 -14
-0 -0 -197 -130 -52 -18 -21 -27 -31 -78 -73 -61 -64 -59 -9 -57 -36 -15 -3 -1 -0 -4 -1 -1 -0 -0 -0 -0 -0 -1 -15 -25 -15
-3 -7 -13 -71 -53 -60 -60 -52 -71 -61 -67 -122 -55 -41 -51 -0 -33 -21 -5 -0 -0 -0 -0 -0 -1 -0 -0 -0 -0 -1 -0 -7 -0
-0 -0 -0 -11 -152 -83 -77 -74 -150 -9 -10 -10 -100 -85 -0 -0 -67 -24 -1 -0 -0 -0 -0 -0 -0 -0 -0 -0 -0 -1 -5 -1 -0
-0 -0 -12 -6 -15 -15 -142 -196 -38 -11 -3 -0 -1 -2 -0 -39 -26 -40 -2 -0 -0 -0 -0 -0 -0 -0 -0 -0 -1 -20 -43 -74 -13
-0 -0 -0 -4 -12 -16 -11 -19 -0 -0 -0 -8 -9 -13 -3 -37 -31 -23 -7 -0 -0 -0 -0 -0 -0 -0 -0 -4 -22 -62 -9 -8 -0
-0 -0 -0 -0 -11 -11 -20 -9 -0 -0 -3 -11 -0 -1 -9 -18 -46 -39 -21 -4 -0 -0 -0 -0 -0 -0 -4 -32 -10 -0 -0 -0 -0
-0 -0 -0 -0 -0 -0 -0 -0 -0 -0 -0 -5 -1 -9 -0 -41 -38 -9 -21 -6 -36 -18 -4 -0 -0 -0 -5 -0 -0 -0 -0 -0 -0
-0 -0 -0 -0 -0 -0 -0 -0 -0 -0 -0 -0 -0 -0 -0 -0 -20 -22 -35 -45 -23 -0 -10 -9 -13 -10 -0 -1 -1 -0 -0 -0 -39
-0 -0 -0 -0 -0 -0 -0 -0 -0 -0 -0 -0 -0 -2 -0 -0 -0 -0 -21 -0 -22 -5 -2 -0 -0 -0 -0 -0 -0 -0 -18 -22 -60
-0 -0 -0 -0 -0 -0 -0 -0 -1 -0 -0 -0 -0 -0 -0 -0 -0 -1 -0 -0 -0 -0 -0 -0 -0 -0 -0 -0 -0 -0 -0 -31 -24
-0 -0 -0 -0 -0 -0 -0 -0 -0 -0 -0 -0 -0 -0 -0 -0 -0 -0 -0 -0 -0 -0 -0 -0 -0 -8 -0 -0 -0 -0 -0 -0 -0
-0 -0 -0 -0 -0 -0 -0 -0 -0 -0 -0 -0 -0 -0 -0 -0 -0 -0 -0 -0 -0 -0 -0 -0 -0 -0 -10 -0 -0 -0 -0 -0 -0
-0 -0 -0 -0 -0 -0 -0 -0 -0 -0 -0 -0 -0 -0 -0 -0 -0 -0 -0 -0 -0 -0 -0 -0 -0 -5 -12 -4 -0 -0 -0 -0 -0
-0 -0 -0 -0 -0 -0 -0 -0 -0 -0 -0 -0 -0 -0 -0 -0 -0 -0 -0 -0 -0 -0 -0 -0 -0 -0 -0 -0 -0 -0 -0 -0 -3
-0 -0 -0 -0 -0 -0 -0 -0 -0 -0 -0 -0 -0 -0 -0 -0 -0 -0 -0 -0 -0 -0 -0 -0 -0 -0 -0 -0 -0 -0 -0 -0 -0
-0 -0 -0 -0 -0 -0 -0 -0 -0 -0 -0 -0 -0 -0 -0 -0 -0 -0 -0 -0 -0 -0 -0 -0 -0 -0 -0 -0 -0 -0 -17 -3 -0
-0 -0 -0 -0 -0 -0 -0 -0 -0 -0 -0 -0 -0 -0 -0 -0 -0 -0 -0 -0 -0 -0 -0 -0 -0 -0 -0 -0 -0 -0 -0 -0 -0
Wind_Speed
8 7 9 27 26 21 22 23 20 18 17 16 19 20 21 22 16 15 16 16 20 22 25 26 27 24 24 25 25 26 25 27 28
nan nan nan 3 13 20 19 19 17 18 19 21 21 22 nan nan nan 18 17 17 21 22 22 23 25 24 26 25 26 26 27 28 28
nan nan nan 7 7 11 18 18 20 20 19 19 22 23 nan nan nan 17 15 20 22 21 21 24 26 28 25 24 25 26 28 28 28
nan nan nan 8 6 12 15 18 15 14 13 15 18 nan nan nan 14 12 11 16 19 20 22 22 23 26 27 28 26 27 28 27 26
nan nan nan 12 15 15 14 16 18 18 18 nan 18 18 nan nan nan 11 11 16 21 19 21 23 24 25 28 29 28 29 29 28 28
nan nan nan nan 14 13 16 21 nan nan nan nan nan nan nan nan nan 12 19 19 20 17 19 22 25 28 30 31 33 35 35 32 34
nan nan nan nan nan nan 22 nan nan nan nan nan nan nan nan nan nan nan 23 22 22 20 20 23 24 27 30 32 35 36 nan nan nan
nan nan nan nan nan nan nan nan nan nan nan nan nan nan nan nan nan nan 26 26 26 26 25 26 27 31 35 36 37 nan nan nan nan
nan nan nan nan nan nan nan nan nan nan nan nan nan nan nan nan nan nan nan 32 32 29 30 30 32 36 39 nan nan nan nan nan nan
nan nan nan nan nan nan nan nan nan nan nan nan nan nan nan nan nan nan nan nan 37 33 32 33 35 39 nan nan nan nan nan nan nan
nan nan nan nan nan nan nan nan nan nan nan nan nan nan nan nan nan nan nan nan nan nan nan nan 33 38 nan nan nan nan nan nan nan
nan nan nan nan nan nan nan nan nan nan nan nan nan nan nan nan nan nan nan nan nan nan nan nan nan nan 41 nan nan nan nan nan nan
nan nan nan nan nan nan nan nan nan nan nan nan nan nan nan nan nan nan nan nan nan nan nan nan nan nan nan nan nan nan nan nan nan
nan nan nan nan nan nan nan nan nan nan nan nan nan nan nan nan nan nan nan nan nan nan nan nan nan nan nan nan nan nan nan nan nan
nan nan nan nan nan nan nan nan nan nan nan nan nan nan nan nan nan nan nan nan nan nan nan nan nan nan nan nan nan nan nan nan nan
nan nan nan nan nan nan nan nan nan nan nan nan nan nan nan nan nan nan nan nan nan nan nan nan nan nan nan nan nan nan nan nan nan
nan nan nan nan nan nan nan nan nan nan nan nan nan nan nan nan nan nan nan nan nan nan nan nan nan nan nan nan nan nan nan nan nan
nan nan nan nan nan nan nan nan nan nan nan nan nan nan nan nan nan nan nan nan nan nan nan nan nan nan nan nan nan nan nan nan nan
nan nan nan nan nan nan nan nan nan nan nan nan nan nan nan nan nan nan nan nan nan nan nan nan nan nan nan nan nan nan nan nan nan
nan nan nan nan nan nan nan nan nan nan nan nan nan nan nan nan nan nan nan nan nan nan nan nan nan nan nan nan nan nan nan nan nan
Wind_Direction
9 347 290 240 236 252 266 262 261 258 255 249 238 240 259 253 243 239 240 243 252 256 260 261 263 270 270 271 265 264 270 273 273
nan nan nan 344 237 249 259 260 262 258 255 250 247 258 nan nan nan 252 248 248 260 258 258 262 261 262 265 271 270 268 266 266 265
nan nan nan 330 277 269 269 266 261 257 254 254 257 260 nan nan nan 250 250 254 257 261 263 264 264 261 260 262 268 270 271 268 273
nan nan nan 337 337 290 286 273 266 266 259 261 260 nan nan nan 241 248 250 264 267 268 269 269 269 271 270 268 269 269 266 264 262
nan nan nan 291 284 297 288 283 277 263 266 nan 258 251 nan nan nan 239 251 264 275 271 273 276 276 271 271 270 268 267 269 264 253
nan nan nan nan 271 288 287 284 nan nan nan nan nan nan nan nan nan 234 247 256 264 272 280 287 286 281 278 275 273 269 267 262 254
nan nan nan nan nan nan 270 nan nan nan nan nan nan nan nan nan nan nan 252 251 259 267 274 286 288 288 286 282 280 275 nan nan nan
nan nan nan nan nan nan nan nan nan nan nan nan nan nan nan nan nan nan 252 257 261 267 277 290 291 289 284 281 281 nan nan nan nan
nan nan nan nan nan nan nan nan nan nan nan nan nan nan nan nan nan nan nan 256 252 264 273 282 285 286 283 nan nan nan nan nan nan
nan nan nan nan nan nan nan nan nan nan nan nan nan nan nan nan nan nan nan nan 256 255 269 276 287 287 nan nan nan nan nan nan nan
nan nan nan nan nan nan nan nan nan nan nan nan nan nan nan nan nan nan nan nan nan nan nan nan 285 288 nan nan nan nan nan nan nan
nan nan nan nan nan nan nan nan nan nan nan nan nan nan nan nan nan nan nan nan nan nan nan nan nan nan 285 nan nan nan nan nan nan
nan nan nan nan nan nan nan nan nan nan nan nan nan nan nan nan nan nan nan nan nan nan nan nan nan nan nan nan nan nan nan nan nan
nan nan nan nan nan nan nan nan nan nan nan nan nan nan nan nan nan nan nan nan nan nan nan nan nan nan nan nan nan nan nan nan nan
nan nan nan nan nan nan nan nan nan nan nan nan nan nan nan nan nan nan nan nan nan nan nan nan nan nan nan nan nan nan nan nan nan
nan nan nan nan nan nan nan nan nan nan nan nan nan nan nan nan nan nan nan nan nan nan nan nan nan nan nan nan nan nan nan nan nan
nan nan nan nan nan nan nan nan nan nan nan nan nan nan nan nan nan nan nan nan nan nan nan nan nan nan nan nan nan nan nan nan nan
nan nan nan nan nan nan nan nan nan nan nan nan nan nan nan nan nan nan nan nan nan nan nan nan nan nan nan nan nan nan nan nan nan
nan nan nan nan nan nan nan nan nan nan nan nan nan nan nan nan nan nan nan nan nan nan nan nan nan nan nan nan nan nan nan nan nan
nan nan nan nan nan nan nan nan nan nan nan nan nan nan nan nan nan nan nan nan nan nan nan nan nan nan nan nan nan nan nan nan nan